Retour au catalogue

STARLINK-35119

ActifCommunicationsVLEO
NORAD 65508·PAYLOAD·🇺🇸 United States

Lancé Sep 5, 2025 depuis Cape Canaveral Space Force Station

Loading…

Prochains Passages (prochaines 24 heures)

TLE

FraisSource: CelesTrak SupGP

Époque: Sep 15, 2026, 02:36 UTC

1 65508C 25198S   26258.10881944  .00019668  00000+0  58164-3 0  2581
2 65508  53.1562 107.2402 0001105  80.1782  18.3764 15.34351386    16

Suivez STARLINK-35119 en temps réel avec AllMySat

Download on the App Store